Providence, RI

7:26 PM EDT on July 23, 2017 (GMT -0400)
Green State

Weather History for KPVD - February, 2014

Change the Weather History Date:

Tuesday, February 11, 2014

  Actual Average Record
Temperature  
Mean Temperature 21 °F 31 °F  
Max Temperature 25 °F 40 °F 62 °F (1981)
Min Temperature 16 °F 23 °F -6 °F (1979)
Degree Days  
Heating Degree Days 44 34  
Month to date heating degree days 404 379  
Since 1 July heating degree days 3660 3516  
Cooling Degree Days 0 0  
Month to date cooling degree days 0 0  
Year to date cooling degree days 0 0  
Moisture  
Dew Point 2 °F    
Average Humidity 53    
Maximum Humidity 70    
Minimum Humidity 36    
Precipitation  
Precipitation 0.00 in 0.11 in 1.98 in (1955)
Month to date precipitation 1.51 1.24  
Year to date precipitation 5.20 5.10  
Snow  
Snow 0.00 in 0.30 in 9.80 in (1994)
Month to date snowfall 8.8 3.4  
Since 1 July snowfall 30.9 22.6  
Snow Depth 4.00 in    
Sea Level Pressure  
Sea Level Pressure 30.31 in    
Wind  
Wind Speed 9 mph (WNW)    
Max Wind Speed 14 mph    
Max Gust Speed 20 mph    
Visibility 10 miles    
Events      
T = Trace of Precipitation, MM = Missing Value Source: NWS Daily Summary

Daily Weather History Graph

Daily Weather History Graph

Search for Another Location

Airport or City:

Trip Planner

Search our weather history database for the weather conditions in past years. The results will help you decide how hot, cold, wet, or windy it might be!

Date:

Astronomy

Feb. 11, 2014 Rise Set
Actual Time 6:46 AM EST 5:14 PM EST
Civil Twilight 6:17 AM EST 5:42 PM EST
Nautical Twilight 5:45 AM EST 6:15 PM EST
Astronomical Twilight 5:12 AM EST 6:47 PM EST
Moon 2:30 PM EST (2/11) 4:22 AM EST (2/11)
Length of Visible Light 11h 25m
Length of Day
10h 27m
Waxing Gibbous, 90% of the Moon is Illuminated
Feb 11
Waxing Gibbous
Feb 14
Full
Feb 22
Last Quarter
Mar 1
New
Mar 8
First Quarter

Hourly Weather History & Observations

Time (EST) Temp. Windchill Dew Point Humidity Pressure Visibility Wind Dir Wind Speed Gust Speed Precip Events Conditions
12:51 AM 16.0 °F 6.3 °F 3.9 °F 59% 30.24 in 10.0 mi West 6.9 mph - N/A   Clear
1:51 AM 14.0 °F 5.1 °F 3.0 °F 62% 30.25 in 10.0 mi West 5.8 mph - N/A   Clear
2:51 AM 12.9 °F 2.6 °F 3.0 °F 65% 30.25 in 10.0 mi West 6.9 mph - N/A   Clear
3:51 AM 12.9 °F 5.2 °F 3.9 °F 67% 30.25 in 10.0 mi West 4.6 mph - N/A   Clear
4:51 AM 12.9 °F 3.8 °F 3.9 °F 67% 30.27 in 10.0 mi West 5.8 mph - N/A   Clear
5:51 AM 12.9 °F 5.2 °F 5.0 °F 71% 30.27 in 10.0 mi West 4.6 mph - N/A   Clear
6:51 AM 12.9 °F 3.8 °F 5.0 °F 71% 30.29 in 10.0 mi West 5.8 mph - N/A   Partly Cloudy
7:51 AM 14.0 °F 5.1 °F 5.0 °F 67% 30.31 in 10.0 mi WNW 5.8 mph - N/A   Partly Cloudy
8:51 AM 18.0 °F 6.9 °F 5.0 °F 57% 30.32 in 10.0 mi WNW 9.2 mph - N/A   Partly Cloudy
9:51 AM 19.9 °F 6.7 °F 3.0 °F 48% 30.33 in 10.0 mi WNW 13.8 mph 19.6 mph N/A   Scattered Clouds
10:51 AM 21.9 °F 9.2 °F 1.9 °F 42% 30.32 in 10.0 mi WNW 13.8 mph - N/A   Partly Cloudy
11:51 AM 23.0 °F 11.1 °F 1.9 °F 40% 30.30 in 10.0 mi West 12.7 mph - N/A   Scattered Clouds
12:51 PM - - - N/A% 30.28 in - North - - N/A   Unknown
12:52 PM 24.8 °F 13.4 °F -5.8 °F 26% 30.27 in 10.0 mi NW 12.7 mph - N/A   Scattered Clouds
1:51 PM 24.1 °F 12.0 °F 3.0 °F 40% 30.25 in 10.0 mi West 13.8 mph - N/A   Partly Cloudy
2:51 PM 25.0 °F 13.6 °F 1.9 °F 37% 30.26 in 10.0 mi NW 12.7 mph - N/A   Partly Cloudy
3:51 PM 25.0 °F 14.8 °F 1.0 °F 36% 30.27 in 10.0 mi NW 10.4 mph - N/A   Partly Cloudy
4:51 PM 24.1 °F 16.0 °F 1.0 °F 37% 30.30 in 10.0 mi NW 6.9 mph - N/A   Partly Cloudy
5:51 PM 21.9 °F 14.5 °F 1.9 °F 42% 30.33 in 10.0 mi WNW 5.8 mph - N/A   Partly Cloudy
6:51 PM 19.9 °F 10.1 °F 1.0 °F 44% 30.35 in 10.0 mi WNW 8.1 mph - N/A   Clear
7:51 PM 19.0 °F 7.5 °F 1.0 °F 46% 30.38 in 10.0 mi NW 10.4 mph - N/A   Clear
8:51 PM 18.0 °F 6.9 °F 1.0 °F 48% 30.40 in 10.0 mi NNW 9.2 mph - N/A   Clear
9:51 PM 18.0 °F 8.7 °F 1.0 °F 48% 30.41 in 10.0 mi NNW 6.9 mph - N/A   Clear
10:51 PM 17.1 °F 6.6 °F 1.0 °F 50% 30.42 in 10.0 mi NW 8.1 mph - N/A   Clear
11:51 PM 16.0 °F 4.4 °F 1.0 °F 52% 30.43 in 10.0 mi NW 9.2 mph - N/A   Clear